This is the latest recevied weather packets stored in our database for station/object AI9F. If no packets are shown the sender has not sent any weather packets the latest 10 day(s).
| Time | Temp. | Humidity | Pressure | Rain* | Wind** | Luminosity | Snow |
|---|---|---|---|---|---|---|---|
| 1777587531 | 17.78° C | 41% | 1015.5 hPa | 0 mm | - | 299 W/m² | - |
| 1777587227 | 17.22° C | 39% | 1015.6 hPa | 0 mm | - | 314 W/m² | - |
| 1777586923 | 16.67° C | 41% | 1015.8 hPa | 0 mm | - | 152 W/m² | - |
| 1777586619 | 17.22° C | 42% | 1016.1 hPa | 0 mm | - | 125 W/m² | - |
| 1777586314 | 17.22° C | 37% | 1016 hPa | 0 mm | - | 165 W/m² | - |
| 1777586013 | 17.78° C | 39% | 1016.1 hPa | 0 mm | - | 143 W/m² | - |
| 1777585713 | 18.89° C | 37% | 1016.1 hPa | 0 mm | - | 126 W/m² | - |
| 1777585413 | 19.44° C | 37% | 1016.1 hPa | 0 mm | - | 436 W/m² | - |
| 1777585108 | 18.89° C | 33% | 1016 hPa | 0 mm | - | 457 W/m² | - |
| 1777584804 | 18.89° C | 33% | 1016.1 hPa | 0 mm | - | 467 W/m² | - |
| 1777584502 | 18.89° C | 35% | 1015.9 hPa | 0 mm | - | 475 W/m² | - |
| 1777584199 | 18.89° C | 33% | 1016 hPa | 0 mm | - | 472 W/m² | - |
| 1777583898 | 18.33° C | 35% | 1016.1 hPa | 0 mm | - | 546 W/m² | - |
| 1777583594 | 19.44° C | 33% | 1016.2 hPa | 0 mm | - | 538 W/m² | - |
| 1777583292 | 18.89° C | 34% | 1016.3 hPa | 0 mm | - | 550 W/m² | - |
| 1777582987 | 19.44° C | 37% | 1016.3 hPa | 0 mm | - | 568 W/m² | - |
| 1777582686 | 18.89° C | 35% | 1016.3 hPa | 0 mm | - | 571 W/m² | - |
| 1777582380 | 18.89° C | 35% | 1016.3 hPa | 0 mm | - | 590 W/m² | - |
| 1777582079 | 18.89° C | 38% | 1016.3 hPa | 0 mm | - | 614 W/m² | - |
| 1777581774 | 18.89° C | 37% | 1016.4 hPa | 0 mm | - | 633 W/m² | - |
| 1777581472 | 18.33° C | 37% | 1016.5 hPa | 0 mm | - | 639 W/m² | - |
| 1777581168 | 18.33° C | 34% | 1016.6 hPa | 0 mm | - | 633 W/m² | - |
| 1777580868 | 19.44° C | 36% | 1016.7 hPa | 0 mm | - | 648 W/m² | - |
| 1777580563 | 18.89° C | 37% | 1016.9 hPa | 0 mm | - | 667 W/m² | - |
| 1777580259 | 18.89° C | 40% | 1017 hPa | 0 mm | - | 291 W/m² | - |
* Rain latest hour (hover to see other rain measurements)
** Current wind speed in m/s (hover to see current wind gust speed)